Regional Weather Roundup
Issued by NWS

Home | Current Version | Previous Version | Text Only | Print | Product List | Glossary Off
Versions: 1 2 3 4 5 6 7 8 9 10 11 12 13 14 15 16 17 18 19 20 21 22 23 24 25 26 27 28 29 30 31 32 33 34 35 36 37 38 39 40 41 42 43 44 45 46 47 48 49 50

000
ASUS43 KMKX 211000
RWRWI

WISCONSIN REGIONAL WEATHER ROUNDUP
NATIONAL WEATHER SERVICE MILWAUKEE/SULLIVAN WI
400 AM CST TUE NOV 21 2017

NOTE: "FAIR" INDICATES FEW OR NO CLOUDS BELOW 12,000 FEET WITH NO
SIGNIFICANT WEATHER AND/OR OBSTRUCTIONS TO VISIBILITY.

WIZ001-002-006>008-014>016-023>028-211100-
NORTHWEST WISCONSIN

CITY           SKY/WX    TMP DP  RH WIND       PRES   REMARKS
SUPERIOR ARPT  CLOUDY    29  15  55 NW26G36   29.54R WCI  14
ASHLAND        CLOUDY    31  18  58 W25G36    29.49R WCI  17
HAYWARD        MOCLDY    31  17  56 NW9G24    29.51R WCI  23
SIREN          CLOUDY    32  19  60 W22G30    29.57R WCI  19
CUMBERLAND     MOCLDY    32  21  64 W26G35    29.54R WCI  18
RICE LAKE      MOCLDY    33  23  66 W17G26    29.55R WCI  22
CHETEK         MOCLDY    33  24  67 W12G21    29.53R WCI  25
LADYSMITH      CLEAR     34  23  63 W16G33    29.51R WCI  24
EAU CLAIRE     NOT AVBL
MENOMONIE      CLEAR     35  22  59 W17G29    29.59R WCI  24
NEW RICHMOND   PTCLDY    31  20  62 W16G23    29.60R WCI  20
OSCEOLA        PTCLDY    31  19  62 W16G36    29.65R WCI  20
$$

WIZ003>005-009-010-017-018-211100-
NORTH CENTRAL WISCONSIN

CITY           SKY/WX    TMP DP  RH WIND       PRES   REMARKS
MANITOWISH WTR PTCLDY    32  18  55 W18G32    29.38R WCI  20
ARBOR VITAE    CLEAR     37  23  57 W16G32    29.38R WCI  27
WOODRUFF       CLEAR     37  23  57 W16G32    29.38R WCI  27
RHINELANDER    CLEAR     34  24  67 W15       29.40R WCI  24
EAGLE RIVER    PTCLDY    34  20  56 W20G35    29.36R WCI  22
LAND O LAKES   MOCLDY    36  26  69 W9        29.36R WCI  29
PHILLIPS       PTCLDY    33  22  64 W15G21    29.43R WCI  22
TOMAHAWK       CLEAR     34  24  66 W12       29.42R WCI  25
MEDFORD        CLEAR     34  22  62 W22G31    29.45R WCI  22
MERRILL        CLEAR     35  26  69 W12       29.45R WCI  27
$$

WIZ029-030-035-036-043>047-211100-
CENTRAL WISCONSIN

CITY           SKY/WX    TMP DP  RH WIND       PRES   REMARKS
WAUSAU         CLEAR     37  25  61 W17G24    29.45R WCI  27
MOSINEE        CLEAR     36  28  75 W16G22    29.47R WCI  26
MARSHFIELD     CLEAR     36  24  62 W15G24    29.48R WCI  27
STEVENS POINT  CLEAR     39  25  57 W15G23    29.48R WCI  31
WAUPACA        CLEAR     44  28  53 SW14      29.47S
WAUTOMA        CLEAR     42  27  55 SW13      29.50S
WISC RAPIDS    CLEAR     40  26  57 W17G28    29.51R WCI  31
CAMP DOUGLAS   CLEAR    N/A N/A N/A W17       29.54R
$$

WIZ011>013-019>022-031-037>040-048>050-211100-
NORTHEAST WISCONSIN

CITY           SKY/WX    TMP DP  RH WIND       PRES   REMARKS
ANTIGO         CLEAR     36  26  69 W15G23    29.41R WCI  26
SHAWANO        CLEAR     43  28  54 W10G17    29.42R
OCONTO         CLEAR     41  29  62 SW7       29.41S
STURGEON BAY   CLEAR     45  29  53 SW14      29.42R
GREEN BAY      CLEAR     42  31  64 SW9       29.44S
MANITOWOC      CLEAR     46  30  53 SW14      29.48S
APPLETON       CLEAR     43  27  52 SW16      29.45S
CLINTONVILLE   CLEAR     43  27  52 W10G17    29.44S
OSHKOSH        CLEAR     43  30  60 VRB7      29.49S
$$

WIZ032>034-041-042-053>061-211100-
SOUTHWEST WISCONSIN

CITY           SKY/WX    TMP DP  RH WIND       PRES   REMARKS
LA CROSSE      PTCLDY    41  21  44 NW13G22   29.61R
SPARTA         CLEAR     40  28  62 SW5       29.56S
VIROQUA        PTCLDY    38  28  68 W10G16    29.58S WCI  31
BOSCOBEL       PTCLDY    43  28  55 SW8       29.62S
PRAIRIE DU CHI PTCLDY    40  27  59 W6        29.64S
PLATTEVILLE    PTCLDY    38  31  76 W8        29.63R WCI  32
$$

WIZ056-057-062-063-064-067-068-211100-
SOUTH CENTRAL WISCONSIN

CITY           SKY/WX    TMP DP  RH WIND       PRES   REMARKS
REEDSBURG      CLEAR     42  29  60 W12       29.56R
BARABOO/DELLS  CLEAR     42  28  56 W12G18    29.55R
LONE ROCK      CLEAR     40  30  67 W10       29.59S WCI  33
MINERAL POINT  CLEAR     41  32  70 W10       29.60S
MADISON        CLEAR     43  32  65 SW8       29.57S
MIDDLETON      CLEAR     43  31  63 SW9       29.57F
WATERTOWN      CLEAR     41  33  71 SW8       29.56F
MONROE         CLEAR     41  32  70 SW15      29.60F
JANESVILLE     PTCLDY    41  32  70 S3        29.61R
$$

WIZ051-052-058>065-066-070>072-211100-
SOUTHEAST WISCONSIN

CITY           SKY/WX    TMP DP  RH WIND       PRES   REMARKS
MILWAUKEE      MOCLDY    43  32  65 SW13      29.58R
WAUKESHA       CLEAR     41  30  65 SW10G17   29.58S
MILWAUKEE/TIMM CLOUDY    43  30  61 SW13      29.58R
RACINE         CLOUDY    44  32  62 SW15G25   29.62R
BURLINGTON     PTCLDY    42  36  78 SW12      29.61R
KENOSHA        CLOUDY    44  31  60 SW17G25   29.61R
FOND DU LAC    CLEAR     42  30  62 SW13      29.50F
SHEBOYGAN      CLEAR     44  32  62 SW13G21   29.50S
WEST BEND      CLEAR     43  30  61 SW9G20    29.53S
JUNEAU         PTCLDY    41  31  69 SW12      29.55F
$$

LSZ147-162-211100-
LAKE SUPERIOR

STATION/POSITION TIME  TEMP    WIND        PRES    WAVE
                       AIR SEA DIR/SP/G            HT/PER
                 (UTC) (F)     (DEG/KT/KT) (MB)    (FT/S)
DEVILS ISLAND    0900   33     290/ 35/ 40  996.2R
SAXON HARBOR     0930   35     270/ 14/ 24  996.6R
$$

LMZ867-665-643>646-211100-
LAKE MICHIGAN

STATION/POSITION TIME  TEMP    WIND        PRES    WAVE
                       AIR SEA DIR/SP/G            HT/PER
                 (UTC) (F)     (DEG/KT/KT) (MB)    (FT/S)
N MID LAKE BUOY  0850   48 48  220/ 23/ 27  994.5F  10/ 9
NORTHPORT PIER   0940   46     220/  8/ 22  994.9S
KEWAUNEE LAKESHO 0930   46     240/ 10/ 16  996.4F
SHEBOYGAN LAKESH 0900   48     240/ 15/ 19  999.1R
PORT WASHINGTON  0930   47     240/  8/ 17 1001.4R
MILWAUKEE LAKESH 0930   45     240/ 17/ 20   N/A
S MID LAKE BUOY  0850   47 48  240/ 25/ 29 1002.6R   8/ 7
KENOSHA   LAKESH 0900   47     230/ 13/ 27 1002.7
$$

TC  - TEMPERATURE IN CELSIUS
VSB - VISIBILITY IN STATUTE MILES
WCI - WIND CHILL INDEX
HX  - HEAT INDEX




USA.gov is the U.S. government's official web portal to all federal, state and local government web resources and services.